Location: Cahas Mountain Overlook
(37.0833°N, 80.1000°W)
Time: 08:35:48
(UTC-04:00)

Vanguard 2 Rocket - Visible Passes

Search period start: 17 July 2024 00:00
Search period end: 27 July 2024 00:00
Orbit: 555 x 3303 km, 32.9° (Epoch: 16 July)

Date Brightness Start Highest point End Pass type
(mag) Time Alt. Az. Time Alt. Az. Time Alt. Az.
17 Jul 8.7 00:58:57 10° W 01:09:20 61° SSW 01:26:39 10° ESE visible
17 Jul 9.5 03:13:03 10° W 03:25:25 36° SSW 03:42:06 10° SSE visible
17 Jul 10.3 05:34:47 10° WSW 05:41:27 13° SW 05:48:32 10° SSW visible
17 Jul 7.7 21:44:49 10° WSW 21:51:10 65° S 22:02:38 10° E visible
17 Jul 8.3 23:56:40 10° W 00:05:29 66° S 00:12:57 33° ESE visible
18 Jul 9.2 02:09:46 10° W 02:30:21 27° SSE 02:38:04 10° SE visible
18 Jul 10.0 04:36:18 20° SW 04:37:09 20° SW 04:49:14 10° S visible
18 Jul 8.0 22:54:36 10° W 23:02:02 69° S 23:11:13 22° ESE visible
19 Jul 8.7 01:07:01 10° W 01:34:51 - SE 01:16:34 51° SSW visible
19 Jul 10.2 03:21:53 10° W 03:40:40 20° S 03:47:10 10° SSE visible
19 Jul 7.6 21:52:44 10° WSW 21:58:58 67° S 22:10:11 10° E visible
20 Jul 8.4 00:04:40 10° W 00:13:13 57° SSW 00:15:48 50° SSE visible
20 Jul 9.7 02:18:10 10° W 02:44:02 10° SSE 02:21:12 20° WSW visible
20 Jul 10.5 04:49:45 11° SSW 04:49:45 11° SSW 04:50:34 10° SSW visible
20 Jul 8.0 23:02:35 10° W 23:09:48 62° S 23:15:24 34° ESE visible
21 Jul 9.1 01:15:12 10° W 01:20:50 33° WSW 01:20:50 33° WSW visible
21 Jul 7.6 22:00:41 10° W 22:06:46 65° S 22:15:13 17° ESE visible
22 Jul 8.5 00:12:44 10° W 00:20:40 47° SSW 00:20:40 47° SSW visible
22 Jul10.202:54:49SSE02:54:49SSE02:26:07Wvisible
22 Jul 7.2 20:58:53 10° WSW 21:04:02 62° S 21:12:48 10° E visible
22 Jul 8.0 23:10:35 10° W 23:17:33 53° SSW 23:20:40 42° SSE visible
23 Jul 9.6 01:23:40 10° W 01:26:07 19° WSW 01:26:07 19° WSW visible
23 Jul 7.6 22:08:38 10° W 22:14:33 58° S 22:20:45 23° ESE visible
24 Jul 8.8 00:20:56 10° W 00:26:14 33° SW 00:26:14 33° SW visible
24 Jul 7.2 21:06:47 10° W 21:11:49 60° S 21:20:16 10° ESE visible
24 Jul 8.2 23:18:39 10° W 23:25:18 42° SSW 23:26:25 41° S visible
25 Jul 7.8 22:16:36 10° W 22:22:18 48° SSW 22:26:42 28° SE visible
26 Jul 9.3 00:29:28 10° WSW 00:32:11 19° WSW 00:32:11 19° WSW visible
26 Jul 7.3 21:14:42 10° W 21:19:36 52° S 21:27:01 12° ESE visible
26 Jul 8.6 23:26:53 10° W 23:32:31 31° SSW 23:32:31 31° SSW visible
